CZ-6A DEB

Satellite information

Favourite Embed

Satellite Type and Status

DEBRISIN ORBIT

Key statistics

Satellite CZ-6A DEB at a glance.

Uptime

1131

Days in orbit

Revolutions

≈ 14.1

Per day

Orbit

SSO

Sun Synchronous Orbit

Inclination

98.8

Latest

Satellite identification and parameters

Extended collection of information and parameters for CZ-6A DEB.

Object identification

Identified? True

Debris? True

Object name: CZ-6A DEB

International designator: 2022-151AEJ

Object number (NORAD): 56610

Object ID (CCSDS): 56610

Country: PEOPLES REPUBLIC OF CHINA (PRC)

Current information (Y/N): Y

RCS size: SMALL

Orbital parameters

Period: 102.237 minutes

Inclination: 98.8337 deg

SMA: 7242.692 km

Apoapsis: 903.024 km

Periapsis: 826.09 km

RAAN: 340.9018 deg

Eccentricy: 0.00531115

Argument of periapsis: 140.1539 deg

Mean anomaly: 220.3549 deg

Mean motion: 14.08486784 rev/day

Mean motion (dot): 0.00000479 rev/day2

B* drag term: 0.00030016567 1/REarth

Two-line elements (TLE)

Creation date: Dec. 13, 2025, 5:47 p.m.

Reference frame: TEME

Reference center: EARTH

Epoch: Dec. 13, 2025, 6:08 a.m. UTC

TLE line 0: 0 CZ-6A DEB

TLE line 1: 1 56610U 22151AEJ 25347.25602324 .00000479 00000-0 30017-3 0 9998

TLE line 2: 2 56610 98.8337 340.9018 0053112 140.1539 220.3549 14.08486784155543

Live tracking on map

Real-time ground track for satellite CZ-6A DEB.

In-orbit conjunctions

A list of the most updated potential collisions computed for object CZ-6A DEB.

Target Orbit TCA Probability of collision Miss distance Type
OV1-21 R/B LEO 2025-12-11 04:13:52 0.0001166965 255.0 (m) ROCKET BODY

Associated space launch

Chinese satellite reported for atmospheric/ocean/environmental/spatial parameter research purposes, details TBD.

CZ-6A DEB was lifted into orbit during the mission ‘Long March 6A | Yunhai 3’, on board a Long March 6A space rocket.

The launch took place on Nov. 11, 2022, 10:52 p.m. from Launch Complex 9A.

For more information about the launch, click the button.

Launch to space Long March 6A | Yunhai 3
Long March 6A | Yunhai 3

Agency: N/A

Status: Launch Successful

Launch date: Nov. 11, 2022, 10:52 p.m. UTC

Rocket: Long March 6A

Launch pad: Launch Complex 9A

Location: Taiyuan Satellite Launch Center, People's Republic of China

...

Latest news about this satellite

There are no fresh news available about this satellite. Check back as we update our databases every day.


Newsletter sign-up

Weekly statistics, charts and insights to help you stay on top of the space industry.